Walla Walla, WA

1:58 PM PDT on July 22, 2017 (GMT -0700)
Walla Walla Regional

Weather History for KALW - January, 2013

Change the Weather History Date:

Wednesday, January 30, 2013

  Actual Average Record
Temperature  
Mean Temperature 48 °F 37 °F  
Max Temperature 51 °F 43 °F 64 °F (1992)
Min Temperature 44 °F 31 °F -16 °F (1950)
Degree Days  
Heating Degree Days 18 28  
Month to date heating degree days 886  
Since 1 July heating degree days 3024  
Cooling Degree Days 0 0  
Month to date cooling degree days 0  
Year to date cooling degree days 0  
Moisture  
Dew Point 37 °F    
Average Humidity 71    
Maximum Humidity 79    
Minimum Humidity 66    
Precipitation  
Precipitation 0.00 in 0.07 in 0.48 in (2003)
Month to date precipitation 2.46  
Year to date precipitation 2.46  
Snow  
Snow 0.00 in 0.00 in 2.00 in (1969)
Month to date snowfall 1.8  
Year to date snowfall 1.8  
Since 1 July snowfall 7.5  
Snow Depth -    
Sea Level Pressure  
Sea Level Pressure 30.29 in    
Wind  
Wind Speed 15 mph (SSW)    
Max Wind Speed 24 mph    
Max Gust Speed 29 mph    
Visibility 10 miles    
Events      
T = Trace of Precipitation, MM = Missing Value Source: NWS Daily Summary

Daily Weather History Graph

Daily Weather History Graph

Search for Another Location

Airport or City:

Trip Planner

Search our weather history database for the weather conditions in past years. The results will help you decide how hot, cold, wet, or windy it might be!

Date:

Astronomy

Jan. 30, 2013 Rise Set
Actual Time 7:17 AM PST 4:55 PM PST
Civil Twilight 6:45 AM PST 5:28 PM PST
Nautical Twilight 6:09 AM PST 6:04 PM PST
Astronomical Twilight 5:34 AM PST 6:39 PM PST
Moon 9:16 PM PST (1/30) 8:32 AM PST (1/30)
Length of Visible Light 10h 42m
Length of Day
9h 38m
Waning Gibbous, 87% of the Moon is Illuminated
Jan 30
Waning Gibbous
Feb 3
Last Quarter
Feb 9
New
Feb 17
First Quarter
Feb 25
Full

Hourly Weather History & Observations

Time (PST) Temp. Windchill Dew Point Humidity Pressure Visibility Wind Dir Wind Speed Gust Speed Precip Events Conditions
12:53 AM 44.1 °F 36.8 °F 36.0 °F 73% 30.27 in 10.0 mi SSW 16.1 mph - 0.00 in   Overcast
1:53 AM 44.1 °F 37.4 °F 36.0 °F 73% 30.28 in 10.0 mi SSW 13.8 mph - N/A   Overcast
2:53 AM 45.0 °F 37.4 °F 35.1 °F 68% 30.27 in 10.0 mi SSW 18.4 mph - N/A   Overcast
3:53 AM 44.1 °F 36.8 °F 36.0 °F 73% 30.27 in 10.0 mi SSW 16.1 mph 25.3 mph N/A   Overcast
4:53 AM 44.1 °F 36.2 °F 35.1 °F 71% 30.26 in 10.0 mi SSW 18.4 mph - N/A   Overcast
5:53 AM 44.1 °F 37.4 °F 36.0 °F 73% 30.27 in 10.0 mi SSW 13.8 mph - N/A   Overcast
6:38 AM 44.6 °F 39.7 °F 35.6 °F 71% 30.26 in 10.0 mi SSW 9.2 mph - N/A   Overcast
6:53 AM 45.0 °F 38.2 °F 35.1 °F 68% 30.27 in 10.0 mi SW 15.0 mph - N/A   Overcast
7:04 AM 44.6 °F 38.1 °F 35.6 °F 71% 30.25 in 10.0 mi SSW 13.8 mph 25.3 mph N/A   Overcast
7:53 AM 45.0 °F 38.9 °F 36.0 °F 71% 30.28 in 10.0 mi SSW 12.7 mph - N/A   Overcast
8:53 AM 46.9 °F - 37.0 °F 68% 30.27 in 10.0 mi SSW 16.1 mph - N/A   Overcast
9:53 AM 48.0 °F - 37.0 °F 66% 30.28 in 10.0 mi SSW 17.3 mph 23.0 mph N/A   Overcast
10:53 AM 48.0 °F - 37.9 °F 68% 30.30 in 10.0 mi SW 12.7 mph 23.0 mph N/A   Overcast
11:53 AM 50.0 °F - 39.0 °F 66% 30.29 in 10.0 mi SSW 15.0 mph - N/A   Overcast
12:53 PM 50.0 °F - 39.0 °F 66% 30.28 in 10.0 mi SW 24.2 mph 28.8 mph N/A   Overcast
1:53 PM 51.1 °F - 39.9 °F 66% 30.27 in 10.0 mi SW 17.3 mph 26.5 mph N/A   Overcast
2:53 PM 51.1 °F - 39.9 °F 66% 30.27 in 10.0 mi SW 19.6 mph - N/A   Overcast
3:53 PM 51.1 °F - 39.9 °F 66% 30.29 in 10.0 mi SW 16.1 mph 21.9 mph N/A   Overcast
4:53 PM 48.9 °F - 39.9 °F 71% 30.30 in 10.0 mi SSW 12.7 mph - N/A   Overcast
5:53 PM 46.9 °F - 39.0 °F 74% 30.31 in 10.0 mi South 12.7 mph - N/A   Overcast
6:53 PM 45.0 °F 39.3 °F 37.9 °F 76% 30.32 in 10.0 mi South 11.5 mph - N/A   Partly Cloudy
7:53 PM 45.0 °F 39.3 °F 37.9 °F 76% 30.32 in 10.0 mi South 11.5 mph - N/A   Clear
8:53 PM 45.0 °F 39.7 °F 37.9 °F 76% 30.32 in 10.0 mi South 10.4 mph - N/A   Scattered Clouds
9:53 PM 44.1 °F 38.1 °F 37.9 °F 79% 30.32 in 10.0 mi South 11.5 mph - N/A   Clear
10:53 PM 44.1 °F 38.1 °F 37.9 °F 79% 30.32 in 10.0 mi South 11.5 mph - N/A   Partly Cloudy
11:53 PM 44.1 °F 38.1 °F 37.9 °F 79% 30.32 in 10.0 mi South 11.5 mph - N/A   Mostly Cloudy